User: anonymous   Login
Location: Unspecified
(0.0000°N, 0.0000°E)
Time: 18:39:19
(UTC+02:00)
Language:

Cosmos 2251 - Orbit

View from above orbital plane
View from above orbital plane
View from above satellite
View from above satellite

Ground track
Ground track

The orbit data is extracted from the following two-line orbital elements,

1 22675U 93036A   16205.14751976  .00000021  00000-0  17319-4 0  9995
2 22675  74.0397  96.6018 0025981 294.5330  65.3113 14.32478022206915
Epoch (UTC): 23 July 2016 03:32:25
Eccentricity: 0.0025981
inclination: 74.0397°
perigee height: 765 km
apogee height: 802 km
right ascension of ascending node: 96.6018°
argument of perigee: 294.5330°
revolutions per day: 14.32478022
mean anomaly at epoch: 65.3113°
orbit number at epoch: 20691

The dashed part of the orbit path shows where the satellite is in the earth's shadow,  

DLR